CySat-1
1 61501U 98067WZ  24293.51224710  .00228933  00000-0  34500-2 0  9996
2 61501  51.6371  59.4217 0008013  95.1765 265.0140 15.53429933  1767
DORA
1 61502U 98067XA  24293.76437371  .00380565  00000-0  52961-2 0  9994
2 61502  51.6381  58.1062 0006155  67.6184 292.5459 15.55078953  1792
